Regional Weather Roundup
Issued by NWS Little Rock, AR

Home | Current Version | Previous Version | Graphics & Text | Print | Product List | Glossary On
Versions: 1 2 3 4 5 6 7 8 9 10 11 12 13 14 15 16 17 18 19 20 21 22 23 24 25 26 27 28 29 30 31 32 33 34 35 36 37 38 39 40 41 42 43 44 45 46 47 48 49 50
000
ASUS44 KLZK 201905
RWRLZK

WEATHER ROUNDUP FOR ARKANSAS
NATIONAL WEATHER SERVICE LITTLE ROCK AR
200 PM CDT MON APR 20 2015

NOTE: "FAIR" INDICATES FEW OR NO CLOUDS BELOW 12,000 FEET WITH NO
SIGNIFICANT WEATHER AND/OR OBSTRUCTIONS TO VISIBILITY.

ARZ001-003-010-029-202000-
NORTHWEST ARKANSAS

CITY           SKY/WX    TMP DP  RH WIND       PRES   REMARKS
FAYETTEVILLE   SUNNY     58  37  45 NW20G26   29.94S
FORT SMITH     SUNNY     66  31  27 W20G28    29.93F
HARRISON       MOSUNNY   60  35  39 NW14G28   29.89S
BENTONVILLE    SUNNY    N/A N/A N/A NW18G25   29.94S
ROGERS         SUNNY     57  31  37 NW21G29   29.93S
SILOAM SPGS    SUNNY     59  34  38 NW20G26   29.96S
HIGHFILL       SUNNY     59  31  34 NW15G25   29.93S
SPRINGDALE     MOSUNNY   57  30  35 W23G31    29.94F
$$

ARZ004-005-016-202000-
NORTH CENTRAL ARKANSAS

CITY           SKY/WX    TMP DP  RH WIND       PRES   REMARKS
BATESVILLE     PTSUNNY   66  36  32 W10G25    29.86R
FLIPPIN        MOSUNNY   61 N/A N/A W12G21    29.86S
MTN HOME       MOSUNNY   60  34  37 NW12G26   29.85S
$$

ARZ040-041-202000-
WEST CENTRAL ARKANSAS

CITY           SKY/WX    TMP DP  RH WIND       PRES   REMARKS
MENA           SUNNY     64  32  29 NW12G26   29.96S
MOUNT IDA      SUNNY     65  31  28 NW12G30   29.91S
$$

ARZ009-017-025-026-028-202000-
NORTHEAST ARKANSAS

CITY           SKY/WX    TMP DP  RH WIND       PRES   REMARKS
CORNING          N/A     64  39  39 W20G25    29.81S
JONESBORO      MOSUNNY   61  40  45 NW15G24   29.82S
NEWPORT        MOSUNNY   65  38  36 NW18      29.86R
WALNUT RIDGE   MOSUNNY   64  37  36 W16G24    29.82S
BLYTHEVILLE    PTSUNNY   64  45  49 W16G22    29.81S
NW BLYTHEVILLE PTSUNNY   64  41  42 W18G25    29.80
$$

ARZ022-023-033-042-044-202000-
CENTRAL ARKANSAS

CITY           SKY/WX    TMP DP  RH WIND       PRES   REMARKS
LITTLE ROCK    MOSUNNY   67  34  29 NW20G26   29.90S
N LITTLE ROCK  MOSUNNY   62  41  45 NW7G23    29.90S
JACKSONVILLE   MOSUNNY   66  40  39 W15G24    29.88F
SEARCY         MOSUNNY   66  38  35 W8G17     29.88S
HOT SPRINGS    SUNNY     66  35  31 W13G22    29.91F
RUSSELLVILLE   SUNNY     65  36  34 W18G24    29.89F
CLINTON        FAIR      66  36  32 NW13G18   29.87F
$$

ARZ036-202000-
EAST ARKANSAS

CITY           SKY/WX    TMP DP  RH WIND       PRES   REMARKS
WEST MEMPHIS   MOSUNNY   64  44  48 W12G23    29.84S
$$

ARZ050-053-066-070-073-202000-
SOUTHWEST ARKANSAS

CITY           SKY/WX    TMP DP  RH WIND       PRES   REMARKS
ARKADELPHIA    FAIR      69  39  33 VRB7      29.93F
CAMDEN         SUNNY     70  36  28 E10G17    29.93F
TEXARKANA      SUNNY     68  38  33 NW14G23   29.96F
EL DORADO      SUNNY     68  40  35 W15G21    29.94F
DE QUEEN       SUNNY     67  36  31 NW8G20    29.94F
$$

ARZ056-057-069-202000-
SOUTHEAST ARKANSAS

CITY           SKY/WX    TMP DP  RH WIND       PRES   REMARKS
PINE BLUFF     SUNNY     67  38  34 W15       29.89F
STUTTGART      MOSUNNY   66  43  42 W16       29.90R
MONTICELLO     SUNNY     67  40  37 NW12G18   29.89S

$$





USA.gov is the U.S. government's official web portal to all federal, state and local government web resources and services.